OK1FET-14 Weather Reports


time (UTC)temp
C
wind
direction
speed
KPH
gust
KPH
rain 1hr
cm
rain 24hr
cm
rain mn
cm
humidity
%
barometer
mb
20260507170452 9 338 8.0 11.3 0.00 0.00 0.00 100 1015.3
20260507170012 9 336 6.4 8.0 0.00 0.00 0.00 100 1015.3
20260507165532 9 334 6.4 8.0 0.00 0.00 0.00 100 1015.2
20260507165052 9 339 6.4 12.9 0.00 0.00 0.00 100 1015.2
20260507164612 9 332 8.0 12.9 0.00 0.00 0.00 100 1015.1
20260507164204 9 327 9.7 16.1 0.00 0.00 0.00 100 1015.0
20260507164132 9 327 9.7 16.1 0.00 0.00 0.00 100 1015.0
20260507163652 9 312 8.0 12.9 0.00 0.00 0.00 100 1015.1
20260507163340 9 301 11.3 12.9 0.00 0.00 0.00 100 1015.0
20260507163212 9 301 11.3 12.9 0.00 0.00 0.00 100 1015.0
20260507162732 9 291 8.0 11.3 0.00 0.00 0.00 100 1015.0
20260507162252 9 308 6.4 12.9 0.00 0.00 0.00 100 1015.1
20260507161812 9 302 6.4 11.3 0.00 0.00 0.00 100 1015.1
20260507161501 9 306 3.2 4.8 0.00 0.00 0.00 100 1015.1
20260507161332 9 306 3.2 4.8 0.00 0.00 0.00 100 1015.1
20260507160852 9 270 3.2 4.8 0.00 0.00 0.00 100 1015.2
20260507160412 9 251 4.8 6.4 0.00 0.00 0.00 100 1015.2
20260507155932 9 248 6.4 8.0 0.00 0.00 0.00 100 1015.2
20260507155452 9 228 6.4 8.0 0.00 0.00 0.00 100 1015.2
20260507155012 9 240 6.4 9.7 0.00 0.00 0.00 100 1015.2
20260507154532 9 234 6.4 9.7 0.00 0.00 0.00 100 1015.1
20260507154052 9 232 6.4 11.3 0.00 0.00 0.00 100 1015.0
20260507153612 9 227 9.7 11.3 0.00 0.00 0.00 100 1015.0
20260507153132 9 231 8.0 11.3 0.00 0.00 0.00 100 1014.8
20260507152652 9 234 8.0 12.9 0.00 0.00 0.00 100 1014.8
20260507152212 9 225 9.7 14.5 0.00 0.00 0.00 100 1014.8
20260507151732 9 236 9.7 12.9 0.00 0.00 0.00 100 1014.7
20260507151252 9 250 9.7 14.5 0.00 0.00 0.00 100 1014.7
20260507150812 9 235 11.3 16.1 0.00 0.00 0.00 100 1014.5
20260507150332 9 234 9.7 12.9 0.00 0.00 0.00 100 1014.5
20260507150023 9 222 11.3 12.9 0.00 0.00 0.00 100 1014.5
20260507145852 9 222 11.3 12.9 0.00 0.00 0.00 100 1014.5
20260507145412 9 231 9.7 11.3 0.00 0.00 0.00 100 1014.5
20260507144932 9 225 11.3 12.9 0.00 0.00 0.00 100 1014.5
20260507144452 9 225 9.7 11.3 0.00 0.00 0.00 100 1014.6
20260507144012 9 210 8.0 11.3 0.00 0.00 0.00 100 1014.6
20260507143532 8 204 8.0 11.3 0.00 0.00 0.00 100 1014.6
20260507143052 9 225 11.3 12.9 0.00 0.00 0.00 99 1014.6
20260507142658 9 238 9.7 11.3 0.00 0.00 0.00 96 1014.6
20260507142612 9 238 9.7 11.3 0.00 0.00 0.00 96 1014.6
20260507142132 9 251 12.9 19.3 0.00 0.00 0.00 95 1014.6
20260507141652 10 232 12.9 17.7 0.00 0.00 0.00 95 1014.5
20260507141423 10 252 11.3 16.1 0.00 0.00 0.00 94 1014.5
20260507141211 10 252 11.3 16.1 0.00 0.00 0.00 94 1014.5
20260507140731 10 251 9.7 12.9 0.00 0.00 0.00 94 1014.4
20260507140323 10 258 8.0 16.1 0.00 0.00 0.00 92 1014.4
20260507140252 10 258 8.0 16.1 0.00 0.00 0.00 92 1014.4
20260507135811 10 268 9.7 16.1 0.00 0.00 0.00 89 1014.3
20260507135331 11 270 11.3 16.1 0.00 0.00 0.00 86 1014.2
20260507134855 11 267 9.7 14.5 0.00 0.00 0.00 84 1014.1
20260507134851 11 267 9.7 14.5 0.00 0.00 0.00 84 1014.1
20260507134416 11 231 17.7 25.7 0.00 0.00 0.00 81 1014.2
20260507134414 11 231 17.7 25.7 0.00 0.00 0.00 81 1014.2
20260507134411 11 231 17.7 25.7 0.00 0.00 0.00 81 1014.2
20260507133935 12 183 22.5 24.1 0.00 0.00 0.00 77 1014.2
20260507133931 12 183 22.5 24.1 0.00 0.00 0.00 77 1014.2
20260507133450 12 186 22.5 24.1 0.00 0.00 0.00 79 1014.2
20260507133015 12 189 20.9 27.4 0.00 0.00 0.00 82 1014.1
20260507133010 12 189 20.9 27.4 0.00 0.00 0.00 82 1014.1
20260507132530 12 201 19.3 24.1 0.00 0.00 0.00 83 1014.1
20260507132054 12 181 17.7 20.9 0.00 0.00 0.00 83 1014.1
20260507132050 12 181 17.7 20.9 0.00 0.00 0.00 83 1014.1
20260507131614 11 213 17.7 20.9 0.00 0.00 0.00 86 1014.0
20260507131610 11 213 17.7 20.9 0.00 0.00 0.00 86 1014.0
20260507131134 11 196 19.3 24.1 0.00 0.00 0.00 92 1014.0
20260507131130 11 196 19.3 24.1 0.00 0.00 0.00 92 1014.0
20260507130654 10 186 19.3 24.1 0.00 0.00 0.00 93 1013.9
20260507130649 10 186 19.3 24.1 0.00 0.00 0.00 93 1013.9
20260507130209 11 192 20.9 25.7 0.00 0.00 0.00 93 1014.1
20260507125923 11 198 22.5 27.4 0.00 0.00 0.00 83 1014.1
20260507125734 11 198 22.5 27.4 0.00 0.00 0.00 83 1014.1
20260507125729 11 198 22.5 27.4 0.00 0.00 0.00 83 1014.1
20260507125249 12 195 24.1 29.0 0.00 0.00 0.00 79 1014.0
20260507124813 12 195 25.7 30.6 0.00 0.00 0.00 76 1014.0
20260507124809 12 195 25.7 30.6 0.00 0.00 0.00 76 1014.0
20260507124333 12 218 24.1 29.0 0.00 0.00 0.00 81 1013.9
20260507124329 12 218 24.1 29.0 0.00 0.00 0.00 81 1013.9
20260507124026 13 216 20.9 24.1 0.00 0.00 0.00 74 1013.7
20260507123848 13 216 20.9 24.1 0.00 0.00 0.00 74 1013.7
20260507123408 13 206 22.5 29.0 0.00 0.00 0.00 70 1013.7
20260507122932 13 189 22.5 27.4 0.00 0.00 0.00 68 1013.7
20260507122928 13 189 22.5 27.4 0.00 0.00 0.00 68 1013.7
20260507122448 13 195 24.1 25.7 0.00 0.00 0.00 69 1013.7
20260507122012 13 198 20.9 25.7 0.00 0.00 0.00 69 1013.6
20260507122007 13 198 20.9 25.7 0.00 0.00 0.00 69 1013.6
20260507121532 12 192 24.1 25.7 0.00 0.00 0.00 70 1013.6
20260507121527 12 192 24.1 25.7 0.00 0.00 0.00 70 1013.6
20260507121051 12 192 24.1 29.0 0.00 0.00 0.00 70 1013.7
20260507121047 12 192 24.1 29.0 0.00 0.00 0.00 70 1013.7
20260507120611 12 192 24.1 27.4 0.00 0.00 0.00 71 1013.4
20260507120607 12 192 24.1 27.4 0.00 0.00 0.00 71 1013.4
20260507120131 13 209 20.9 24.1 0.00 0.00 0.00 70 1013.5
20260507120126 13 209 20.9 24.1 0.00 0.00 0.00 70 1013.5
20260507115646 13 201 20.9 25.7 0.00 0.00 0.00 68 1013.5
20260507115210 13 194 19.3 22.5 0.00 0.00 0.00 70 1013.5
20260507115206 13 194 19.3 22.5 0.00 0.00 0.00 70 1013.5
20260507114730 12 198 17.7 25.7 0.00 0.00 0.00 71 1013.6
20260507114726 12 198 17.7 25.7 0.00 0.00 0.00 71 1013.6
20260507114250 12 209 17.7 20.9 0.00 0.00 0.00 73 1013.5
20260507114245 12 209 17.7 20.9 0.00 0.00 0.00 73 1013.5
20260507113805 12 219 20.9 22.5 0.00 0.00 0.00 71 1013.6
20260507113329 12 204 17.7 20.9 0.00 0.00 0.00 74 1013.4
20260507113325 12 204 17.7 20.9 0.00 0.00 0.00 74 1013.4
20260507112849 12 228 19.3 24.1 0.00 0.00 0.00 72 1013.5
20260507112845 12 228 19.3 24.1 0.00 0.00 0.00 72 1013.5
20260507112405 12 209 22.5 27.4 0.00 0.00 0.00 75 1013.3
20260507111929 12 189 22.5 27.4 0.00 0.00 0.00 76 1013.5
20260507111925 12 189 22.5 27.4 0.00 0.00 0.00 76 1013.5
20260507111449 12 204 24.1 30.6 0.00 0.00 0.00 74 1013.4
20260507111444 12 204 24.1 30.6 0.00 0.00 0.00 74 1013.4
20260507111008 12 199 20.9 24.1 0.00 0.00 0.00 73 1013.4
20260507111004 12 199 20.9 24.1 0.00 0.00 0.00 73 1013.4
20260507110524 12 215 22.5 27.4 0.00 0.00 0.00 71 1013.4
20260507110048 13 195 24.1 29.0 0.00 0.00 0.00 70 1013.3
20260507110044 13 195 24.1 29.0 0.00 0.00 0.00 70 1013.3
20260507105608 14 198 22.5 29.0 0.00 0.00 0.00 68 1013.3
20260507105603 14 198 22.5 29.0 0.00 0.00 0.00 68 1013.3
20260507105127 13 189 19.3 25.7 0.00 0.00 0.00 71 1013.3
20260507105123 13 189 19.3 25.7 0.00 0.00 0.00 71 1013.3
20260507104647 13 218 20.9 29.0 0.00 0.00 0.00 73 1013.3
20260507104643 13 218 20.9 29.0 0.00 0.00 0.00 73 1013.3
20260507104202 12 225 22.5 25.7 0.00 0.00 0.00 74 1013.3
20260507103722 12 196 27.4 32.2 0.00 0.00 0.00 74 1013.3
20260507103242 12 198 24.1 30.6 0.00 0.00 0.00 72 1013.4
20260507102802 12 186 24.1 27.4 0.00 0.00 0.00 70 1013.3
20260507102322 12 199 27.4 33.8 0.00 0.00 0.00 73 1013.4
20260507101841 12 203 27.4 32.2 0.00 0.00 0.00 73 1013.2
20260507101401 12 206 27.4 33.8 0.00 0.00 0.00 74 1013.1
20260507100921 12 204 24.1 29.0 0.00 0.00 0.00 73 1013.0
20260507100441 12 210 25.7 32.2 0.00 0.00 0.00 75 1013.0
20260507100005 12 216 24.1 27.4 0.00 0.00 0.00 75 1013.2
20260507100001 12 216 24.1 27.4 0.00 0.00 0.00 75 1013.2
20260507095525 12 216 25.7 30.6 0.00 0.00 0.00 76 1012.9
20260507095521 12 216 25.7 30.6 0.00 0.00 0.00 76 1012.9
20260507095040 11 218 27.4 32.2 0.00 0.00 0.00 77 1013.1
20260507094600 11 212 30.6 35.4 0.00 0.00 0.00 75 1012.9
20260507094120 12 199 30.6 40.2 0.00 0.00 0.00 77 1012.9
20260507093644 12 199 30.6 37.0 0.00 0.00 0.00 73 1013.0
20260507093640 12 199 30.6 37.0 0.00 0.00 0.00 73 1013.0
20260507093200 12 198 32.2 40.2 0.00 0.00 0.00 76 1012.8
20260507092724 12 195 27.4 33.8 0.00 0.00 0.00 74 1012.6
20260507092719 12 195 27.4 33.8 0.00 0.00 0.00 74 1012.6
20260507092239 12 212 29.0 33.8 0.00 0.00 0.00 74 1012.8
20260507091834 13 224 30.6 37.0 0.00 0.00 0.00 75 1012.5
20260507091759 13 224 30.6 37.0 0.00 0.00 0.00 75 1012.5
20260507091323 12 206 30.6 37.0 0.00 0.00 0.00 73 1012.4
20260507091319 12 206 30.6 37.0 0.00 0.00 0.00 73 1012.4
20260507090843 12 206 30.6 35.4 0.00 0.00 0.00 76 1012.6
20260507090838 12 206 30.6 35.4 0.00 0.00 0.00 76 1012.6
20260507090358 12 215 33.8 38.6 0.00 0.00 0.00 78 1012.5
20260507085918 12 209 30.6 35.4 0.00 0.00 0.00 77 1012.6
20260507085442 12 207 29.0 33.8 0.00 0.00 0.00 83 1012.4
20260507085438 12 207 29.0 33.8 0.00 0.00 0.00 83 1012.4
20260507085002 11 201 30.6 37.0 0.00 0.00 0.00 89 1012.4
20260507084958 11 201 30.6 37.0 0.00 0.00 0.00 89 1012.4
20260507084522 11 199 32.2 35.4 0.00 0.00 0.00 93 1012.5
20260507084517 11 199 32.2 35.4 0.00 0.00 0.00 93 1012.5
20260507084037 11 198 25.7 30.6 0.00 0.00 0.00 95 1012.4
20260507083557 11 192 27.4 30.6 0.00 0.00 0.00 95 1012.4
20260507083122 11 196 29.0 32.2 0.00 0.00 0.00 95 1012.5
20260507083117 11 196 29.0 32.2 0.00 0.00 0.00 95 1012.5
20260507082641 11 189 29.0 33.8 0.00 0.00 0.00 94 1012.4
20260507082637 11 189 29.0 33.8 0.00 0.00 0.00 94 1012.4
20260507082201 11 184 27.4 40.2 0.00 0.00 0.00 96 1012.3
20260507082156 11 184 27.4 40.2 0.00 0.00 0.00 96 1012.3
20260507081815 11 190 33.8 40.2 0.00 0.00 0.00 94 1012.1
20260507081716 11 190 33.8 40.2 0.00 0.00 0.00 94 1012.1
20260507081236 11 186 32.2 38.6 0.00 0.00 0.00 94 1012.0
20260507080800 12 181 32.2 40.2 0.00 0.00 0.00 92 1011.9
20260507080756 12 181 32.2 40.2 0.00 0.00 0.00 92 1011.9
20260507080316 12 189 29.0 37.0 0.00 0.00 0.00 88 1011.7
20260507075835 12 195 30.6 37.0 0.00 0.00 0.00 89 1011.7
20260507075355 12 203 30.6 33.8 0.00 0.00 0.00 89 1011.7
20260507074915 12 201 33.8 49.9 0.00 0.00 0.00 90 1011.7
20260507074435 12 203 35.4 40.2 0.00 0.00 0.00 91 1011.7
20260507073955 12 204 33.8 37.0 0.00 0.00 0.00 92 1011.6
20260507073515 12 215 27.4 38.6 0.00 0.00 0.00 95 1011.6
20260507073034 11 218 29.0 37.0 0.00 0.00 0.00 96 1011.5
20260507072554 11 207 27.4 33.8 0.00 0.00 0.00 97 1011.5
20260507072114 11 187 27.4 35.4 0.00 0.00 0.00 98 1011.5
20260507071634 11 186 24.1 30.6 0.00 0.00 0.00 98 1011.4
20260507071154 11 196 24.1 29.0 0.00 0.00 0.00 100 1011.4
20260507070714 11 193 25.7 32.2 0.00 0.00 0.00 100 1011.3
20260507070234 11 213 22.5 27.4 0.00 0.00 0.00 100 1011.4
20260507065753 11 193 25.7 37.0 0.00 0.00 0.00 100 1011.2
20260507065313 11 190 24.1 30.6 0.00 0.00 0.00 100 1011.3
20260507064833 11 201 24.1 29.0 0.00 0.00 0.00 100 1011.2
20260507064353 11 219 29.0 37.0 0.00 0.00 0.00 100 1011.2
20260507063913 11 210 25.7 30.6 0.00 0.00 0.00 100 1011.2
20260507063433 11 219 27.4 32.2 0.00 0.00 0.00 100 1011.1
20260507062953 11 216 30.6 35.4 0.00 0.00 0.00 100 1011.1
20260507062513 11 210 25.7 29.0 0.00 0.00 0.00 100 1011.2
20260507062032 11 219 29.0 33.8 0.00 0.00 0.00 100 1011.1
20260507061552 11 210 22.5 27.4 0.00 0.00 0.00 100 1011.1
20260507061112 11 199 25.7 30.6 0.00 0.00 0.00 100 1010.9
20260507060632 11 186 25.7 32.2 0.00 0.00 0.00 100 1010.9
20260507060152 11 198 22.5 25.7 0.00 0.00 0.00 100 1011.0
20260507055712 11 199 30.6 37.0 0.00 0.00 0.00 100 1010.8
20260507055232 11 184 25.7 29.0 0.00 0.00 0.00 100 1010.9
20260507054752 11 207 24.1 27.4 0.00 0.00 0.00 100 1010.7
20260507054311 11 203 19.3 25.7 0.00 0.00 0.00 100 1010.6
20260507053831 11 204 22.5 25.7 0.00 0.00 0.00 100 1010.6
20260507053351 11 192 22.5 25.7 0.00 0.00 0.00 100 1010.5
20260507052911 11 193 25.7 32.2 0.00 0.00 0.00 100 1010.6
20260507052431 10 190 27.4 30.6 0.00 0.00 0.00 100 1010.4
20260507051951 10 196 25.7 29.0 0.00 0.00 0.00 100 1010.3
20260507051511 11 206 25.7 32.2 0.00 0.00 0.00 100 1010.3
20260507051031 10 190 25.7 33.8 0.00 0.00 0.00 100 1010.3
20260507050551 10 192 24.1 29.0 0.00 0.00 0.00 100 1010.2
20260507050111 10 198 24.1 32.2 0.00 0.00 0.00 100 1010.3
20260507045631 10 192 22.5 29.0 0.00 0.00 0.00 100 1010.2
20260507045150 10 183 19.3 24.1 0.00 0.00 0.00 100 1010.2
20260507044710 9 198 19.3 22.5 0.00 0.00 0.00 100 1010.2
20260507044230 9 206 20.9 22.5 0.00 0.00 0.00 100 1010.1
20260507043751 9 204 22.5 27.4 0.00 0.00 0.00 100 1010.0
20260507043310 9 206 19.3 25.7 0.00 0.00 0.00 100 1010.0
20260507042830 9 189 19.3 20.9 0.00 0.00 0.00 100 1009.9
20260507042350 9 195 17.7 20.9 0.00 0.00 0.00 100 1009.9
20260507041910 9 198 17.7 19.3 0.00 0.00 0.00 100 1009.9
20260507041622 9 198 16.1 19.3 0.00 0.00 0.00 100 1009.9
20260507041430 9 198 16.1 19.3 0.00 0.00 0.00 100 1009.9
20260507040950 9 180 16.1 16.1 0.00 0.00 0.00 100 1009.9
20260507040510 9 186 16.1 19.3 0.00 0.00 0.00 100 1009.9
20260507040030 9 180 14.5 16.1 0.00 0.00 0.00 100 1009.9
20260507035550 9 180 14.5 16.1 0.00 0.00 0.00 100 1009.9
20260507035110 9 183 14.5 16.1 0.00 0.00 0.00 100 1009.8
20260507034630 9 180 16.1 19.3 0.00 0.00 0.00 100 1009.9
20260507034150 9 183 16.1 19.3 0.00 0.00 0.00 100 1009.9
20260507033710 9 180 14.5 14.5 0.00 0.00 0.00 100 1009.8
20260507033230 9 186 14.5 16.1 0.00 0.00 0.00 100 1009.8
20260507032822 9 186 14.5 19.3 0.00 0.00 0.00 100 1009.8
20260507032750 9 186 14.5 19.3 0.00 0.00 0.00 100 1009.8
20260507032310 9 181 16.1 20.9 0.00 0.00 0.00 100 1009.9
20260507031831 9 181 14.5 17.7 0.00 0.00 0.00 100 1009.8
20260507031350 9 186 14.5 16.1 0.00 0.00 0.00 100 1009.8
20260507030911 9 189 14.5 16.1 0.00 0.00 0.00 100 1009.8
20260507030431 9 183 14.5 19.3 0.00 0.00 0.00 100 1009.8
20260507025951 9 186 16.1 19.3 0.00 0.00 0.00 100 1009.7
20260507025511 9 180 17.7 20.9 0.00 0.00 0.00 100 1009.8
20260507025031 9 183 17.7 19.3 0.00 0.00 0.00 100 1009.7
20260507024551 8 189 17.7 20.9 0.00 0.00 0.00 100 1009.7
20260507024228 8 183 16.1 17.7 0.00 0.00 0.00 100 1009.7
20260507024111 8 183 16.1 17.7 0.00 0.00 0.00 100 1009.7
20260507023631 8 180 14.5 16.1 0.00 0.00 0.00 100 1009.6
20260507023151 8 183 14.5 16.1 0.00 0.00 0.00 100 1009.6
20260507022711 8 180 14.5 19.3 0.00 0.00 0.00 100 1009.5
20260507022231 8 183 12.9 16.1 0.00 0.00 0.00 100 1009.5
20260507021751 8 180 14.5 16.1 0.00 0.00 0.00 100 1009.5
20260507021311 9 183 14.5 17.7 0.00 0.00 0.00 100 1009.5
20260507020831 9 183 14.5 16.1 0.00 0.00 0.00 100 1009.5
20260507020351 9 180 14.5 16.1 0.00 0.00 0.00 100 1009.4
20260507015911 9 180 14.5 17.7 0.00 0.00 0.00 100 1009.4
20260507015431 9 180 12.9 17.7 0.00 0.00 0.00 100 1009.3
20260507014951 9 183 14.5 17.7 0.00 0.00 0.00 100 1009.3
20260507014511 9 195 14.5 16.1 0.00 0.00 0.00 100 1009.3
20260507014031 9 192 14.5 17.7 0.00 0.00 0.00 100 1009.2
20260507013551 9 195 11.3 12.9 0.00 0.00 0.00 100 1009.1
20260507013111 9 193 11.3 12.9 0.00 0.00 0.00 100 1009.0
20260507012631 9 193 14.5 17.7 0.00 0.00 0.00 100 1009.0
20260507012151 9 206 14.5 16.1 0.00 0.00 0.00 100 1008.9
20260507011711 9 203 14.5 17.7 0.00 0.00 0.00 100 1009.0
20260507011231 9 198 14.5 16.1 0.00 0.00 0.00 100 1009.0
20260507010751 10 183 14.5 16.1 0.00 0.00 0.00 100 1009.0
20260507010311 10 186 14.5 16.1 0.00 0.00 0.00 100 1009.0
20260507005831 10 197 12.9 14.5 0.00 0.00 0.00 100 1009.1
20260507005351 10 193 14.5 16.1 0.00 0.00 0.00 100 1009.0
20260507004911 10 205 16.1 17.7 0.00 0.00 0.00 100 1009.1
20260507004431 10 201 17.7 19.3 0.00 0.00 0.00 100 1009.1
20260507003950 10 213 16.1 19.3 0.00 0.00 0.00 100 1009.1
20260507003510 10 219 12.9 12.9 0.00 0.00 0.00 100 1008.9
20260507003030 10 219 11.3 12.9 0.00 0.00 0.00 100 1008.8
20260507002550 10 222 9.7 11.3 0.00 0.00 0.00 100 1008.8
20260507002110 10 224 11.3 12.9 0.00 0.00 0.00 100 1008.8
20260507001630 10 224 11.3 12.9 0.00 0.00 0.00 100 1008.7
20260507001150 10 225 9.7 11.3 0.00 0.00 0.00 100 1008.6
20260507000710 10 225 8.0 9.7 0.00 0.00 0.00 100 1008.6
20260507000230 10 210 6.4 8.0 0.00 0.00 0.00 100 1008.5
20260506235750 10 222 4.8 4.8 0.00 0.00 0.00 100 1008.4
20260506235310 10 231 4.8 4.8 0.00 0.00 0.00 100 1008.4
20260506234830 10 254 4.8 6.4 0.00 0.00 0.00 100 1008.3
20260506234350 10 225 3.2 4.8 0.00 0.00 0.00 100 1008.4
20260506233910 10 210 4.8 8.0 0.00 0.00 0.00 100 1008.5
20260506233430 10 206 4.8 6.4 0.00 0.00 0.00 100 1008.5
20260506232950 10 225 4.8 6.4 0.00 0.00 0.00 100 1008.3
20260506232510 10 225 6.4 8.0 0.00 0.00 0.00 100 1008.4
20260506232030 10 225 6.4 8.0 0.00 0.00 0.00 100 1008.4
20260506231550 10 225 8.0 9.7 0.00 0.00 0.00 100 1008.4
20260506231109 10 225 8.0 9.7 0.00 0.00 0.00 100 1008.5
20260506230629 10 222 9.7 11.3 0.00 0.00 0.00 100 1008.4
20260506230149 10 225 9.7 11.3 0.00 0.00 0.00 100 1008.3
20260506225709 10 222 8.0 9.7 0.00 0.00 0.00 100 1008.3
20260506225229 10 222 9.7 11.3 0.00 0.00 0.00 100 1008.3
20260506224749 10 216 11.3 14.5 0.00 0.00 0.00 100 1008.4
20260506224309 10 222 8.0 11.3 0.00 0.00 0.00 100 1008.4
20260506223829 10 222 8.0 9.7 0.00 0.00 0.00 100 1008.4
20260506223349 10 226 9.7 16.1 0.00 0.00 0.00 100 1008.4
20260506222909 10 251 11.3 14.5 0.00 0.00 0.00 100 1008.3
20260506222429 10 231 14.5 20.9 0.00 0.00 0.00 100 1008.3
20260506221949 11 235 6.4 12.9 0.00 0.00 0.00 100 1008.1
20260506221509 11 235 4.8 8.0 0.00 0.00 0.00 100 1008.0
20260506221222 10 254 8.0 11.3 0.00 0.00 0.00 100 1008.1
20260506221028 10 254 8.0 11.3 0.00 0.00 0.00 100 1008.1
20260506220548 10 267 9.7 11.3 0.00 0.00 0.00 100 1008.1
20260506220108 10 264 9.7 11.3 0.00 0.00 0.00 100 1008.1
20260506215628 10 256 6.4 9.7 0.00 0.00 0.00 100 1008.2
20260506215148 10 249 6.4 9.7 0.00 0.00 0.00 100 1008.3
20260506214708 10 249 6.4 9.7 0.00 0.00 0.00 100 1008.4
20260506214228 10 258 9.7 12.9 0.00 0.00 0.00 100 1008.5
20260506213748 10 237 11.3 12.9 0.00 0.00 0.00 100 1008.5
20260506213308 10 224 11.3 12.9 0.00 0.00 0.00 100 1008.5
20260506212828 11 227 11.3 14.5 0.00 0.00 0.00 100 1008.5
20260506212348 11 225 12.9 16.1 0.00 0.00 0.00 100 1008.4
20260506211908 11 210 12.9 16.1 0.00 0.00 0.00 100 1008.3
20260506211427 11 228 17.7 24.1 0.00 0.00 0.00 100 1008.4
20260506210947 11 228 16.1 19.3 0.00 0.00 0.00 100 1008.3
20260506210507 11 225 16.1 20.9 0.00 0.00 0.00 100 1008.1
20260506210027 11 216 19.3 25.7 0.00 0.00 0.00 100 1008.0
20260506205547 11 213 20.9 27.4 0.00 0.00 0.00 100 1008.0
20260506205107 12 187 12.9 16.1 0.00 0.00 0.00 97 1007.9
20260506204627 12 180 11.3 16.1 0.00 0.00 0.00 96 1007.7
20260506204146 12 180 6.4 6.4 0.00 0.00 0.00 96 1007.6
20260506203706 12 142 8.0 11.3 0.00 0.00 0.00 94 1007.6
20260506203307 12 141 9.7 12.9 0.00 0.00 0.00 93 1007.6
20260506203226 12 141 9.7 12.9 0.00 0.00 0.00 93 1007.6
20260506202746 12 141 12.9 17.7 0.00 0.00 0.00 91 1007.5
20260506202306 12 120 11.3 16.1 0.00 0.00 0.00 88 1007.5
20260506201826 12 132 8.0 9.7 0.00 0.00 0.00 90 1007.5
20260506201345 12 135 6.4 9.7 0.00 0.00 0.00 89 1007.5
20260506200905 12 135 6.4 8.0 0.00 0.00 0.00 87 1007.4
20260506200532 12 101 4.8 6.4 0.00 0.00 0.00 85 1007.3
20260506200425 12 101 4.8 6.4 0.00 0.00 0.00 85 1007.3
20260506195945 13 61 6.4 8.0 0.00 0.00 0.00 85 1007.1
20260506195505 12 23 6.4 11.3 0.00 0.00 0.00 86 1007.0
20260506195024 12 357 6.4 8.0 0.00 0.00 0.00 86 1007.0
20260506194544 12 0 6.4 8.0 0.00 0.00 0.00 86 1006.9
20260506194503 12 332 3.2 4.8 0.00 0.00 0.00 86 1006.9
20260506194104 12 332 3.2 4.8 0.00 0.00 0.00 86 1006.9
20260506193624 12 225 4.8 6.4 0.00 0.00 0.00 86 1007.1
20260506193144 13 51 8.0 11.3 0.00 0.00 0.00 82 1007.3
20260506192704 13 45 11.3 12.9 0.00 0.00 0.00 83 1007.1
20260506192223 13 36 11.3 12.9 0.00 0.00 0.00 84 1007.0
20260506191743 12 33 8.0 8.0 0.00 0.00 0.00 85 1006.9
20260506191303 12 45 9.7 12.9 0.00 0.00 0.00 84 1006.9
20260506190823 12 46 9.7 11.3 0.00 0.00 0.00 85 1006.8
20260506190343 12 66 8.0 9.7 0.00 0.00 0.00 87 1006.9
20260506185902 12 71 8.0 12.9 0.00 0.00 0.00 86 1006.8
20260506185422 12 45 12.9 16.1 0.00 0.00 0.00 85 1006.5
20260506184947 12 45 11.3 16.1 0.00 0.00 0.00 84 1006.3
20260506184942 12 45 11.3 16.1 0.00 0.00 0.00 84 1006.3
20260506184506 12 41 8.0 9.7 0.00 0.00 0.00 84 1006.3
20260506184502 12 41 8.0 9.7 0.00 0.00 0.00 84 1006.3
20260506184026 12 356 4.8 8.0 0.00 0.00 0.00 84 1006.3
20260506184022 12 356 4.8 8.0 0.00 0.00 0.00 84 1006.3
20260506183546 12 359 9.7 11.3 0.00 0.00 0.00 83 1006.1
20260506183541 12 359 9.7 11.3 0.00 0.00 0.00 83 1006.1
20260506183101 12 0 9.7 11.3 0.00 0.00 0.00 83 1006.0
20260506182621 12 359 11.3 14.5 0.00 0.00 0.00 82 1006.0
20260506182145 12 342 9.7 12.9 0.00 0.00 0.00 81 1006.0
20260506182141 12 342 9.7 12.9 0.00 0.00 0.00 81 1006.0
20260506181704 12 350 11.3 16.1 0.00 0.00 0.00 80 1006.0
20260506181701 12 350 11.3 16.1 0.00 0.00 0.00 80 1006.0
20260506181220 13 341 11.3 20.9 0.00 0.00 0.00 79 1005.9
20260506180745 13 327 14.5 24.1 0.00 0.00 0.00 78 1006.1
20260506180740 13 327 14.5 24.1 0.00 0.00 0.00 78 1006.1
20260506180304 13 309 14.5 24.1 0.00 0.00 0.00 78 1006.2
20260506180300 13 309 14.5 24.1 0.00 0.00 0.00 78 1006.2
20260506175820 13 310 14.5 20.9 0.00 0.00 0.00 78 1006.2
20260506175340 13 287 12.9 19.3 0.00 0.00 0.00 78 1006.3
20260506174904 14 312 9.7 12.9 0.00 0.00 0.00 74 1006.4
20260506174859 14 312 9.7 12.9 0.00 0.00 0.00 74 1006.4
20260506174423 14 318 4.8 6.4 0.00 0.00 0.00 73 1006.3
20260506174419 14 318 4.8 6.4 0.00 0.00 0.00 73 1006.3
20260506173939 14 315 4.8 6.4 0.00 0.00 0.00 73 1006.3
20260506173458 14 315 4.8 8.0 0.00 0.00 0.00 72 1006.1
20260506173023 15 315 6.4 8.0 0.00 0.00 0.00 72 1006.1
20260506173018 15 315 6.4 8.0 0.00 0.00 0.00 72 1006.1
20260506172542 15 315 4.8 6.4 0.00 0.00 0.00 72 1006.0
20260506172538 15 315 4.8 6.4 0.00 0.00 0.00 72 1006.0
20260506172101 15 331 6.4 8.0 0.00 0.00 0.00 71 1005.9
20260506172057 15 331 6.4 8.0 0.00 0.00 0.00 71 1005.9
20260506171621 15 342 6.4 8.0 0.00 0.00 0.00 70 1005.8
20260506171617 15 342 6.4 8.0 0.00 0.00 0.00 70 1005.8
20260506171136 15 336 8.0 11.3 0.00 0.00 0.00 69 1005.6
20260506170656 15 341 11.3 16.1 0.00 0.00 0.00 68 1005.4